PACCTY Weather Reports


Display with metric or nautical units.
time (UTC)temp
F
wind
direction
speed
MPH
gust
MPH
rain 1hr
in
rain 24hr
in
rain mn
in
humidity
%
barometer
mb
20220123154549 40 1 3.0 4.0 0.00 0.00 0.00 92 1027.2
20220123154223 40 1 3.0 4.0 0.00 0.00 0.00 92 1027.2
20220123153724 40 14 2.0 4.0 0.00 0.00 0.00 93 1027.0
20220123153223 40 11 2.0 4.0 0.00 0.00 0.00 93 1027.0
20220123152725 40 14 2.0 4.0 0.00 0.00 0.00 93 1027.0
20220123151223 41 18 3.0 6.0 0.00 0.00 0.00 93 1027.3
20220123150724 41 334 3.0 6.0 0.00 0.00 0.00 93 1027.2
20220123150223 40 15 3.0 5.0 0.00 0.00 0.00 93 1027.2
20220123145723 41 15 3.0 4.0 0.00 0.00 0.00 93 1027.1
20220123145225 41 8 2.0 8.0 0.00 0.00 0.00 92 1027.0
20220123144723 41 16 4.0 8.0 0.00 0.00 0.00 92 1027.1
20220123144223 41 46 3.0 8.0 0.00 0.00 0.00 91 1027.1
20220123143724 41 18 3.0 5.0 0.00 0.00 0.00 92 1027.1
20220123142225 42 16 2.0 5.0 0.00 0.00 0.00 90 1027.0
20220123141724 42 19 3.0 5.0 0.00 0.00 0.00 90 1026.9
20220123141223 41 0 0.0 0.0 0.00 0.00 0.00 92 1026.9
20220123140724 41 0 0.0 0.0 0.00 0.00 0.00 91 1026.9
20220123140225 41 0 0.0 0.0 0.00 0.00 0.00 92 1027.0
20220123135724 41 0 0.0 0.0 0.00 0.00 0.00 93 1027.1
20220123135224 41 0 0.0 0.0 0.00 0.00 0.00 93 1027.1
20220123134725 41 0 0.0 0.0 0.00 0.00 0.00 94 1027.2
20220123134223 41 0 0.0 0.0 0.00 0.00 0.00 93 1027.1
20220123133723 41 0 0.0 0.0 0.00 0.00 0.00 93 1027.1
20220123133223 41 0 0.0 0.0 0.00 0.00 0.00 93 1027.1
20220123132724 41 0 0.0 0.0 0.00 0.00 0.00 94 1027.0
20220123132224 41 0 0.0 0.0 0.00 0.00 0.00 93 1027.0
20220123131725 41 0 0.0 0.0 0.00 0.00 0.00 93 1027.1
20220123131223 41 0 0.0 0.0 0.00 0.00 0.00 93 1027.1
20220123130724 41 0 0.0 0.0 0.00 0.00 0.00 93 1027.2
20220123130223 42 0 0.0 0.0 0.00 0.00 0.00 91 1027.1
20220123125726 42 0 0.0 0.0 0.00 0.00 0.00 91 1027.0
20220123125224 41 0 0.0 0.0 0.00 0.00 0.00 90 1027.0
20220123124224 42 0 0.0 2.0 0.00 0.00 0.00 92 1026.9
20220123123724 42 0 0.0 2.0 0.00 0.00 0.00 91 1027.0
20220123123223 42 12 0.0 2.0 0.00 0.00 0.00 91 1027.1
20220123122725 42 15 0.0 5.0 0.00 0.00 0.00 91 1027.0
20220123122224 42 12 3.0 5.0 0.00 0.00 0.00 90 1027.1
20220123121724 42 23 3.0 5.0 0.00 0.00 0.00 92 1027.0
20220123121223 42 28 0.0 4.0 0.00 0.00 0.00 91 1027.0
20220123120224 42 0 0.0 3.0 0.00 0.00 0.00 91 1027.1
20220123115723 42 0 0.0 3.0 0.00 0.00 0.00 91 1027.2
20220123115223 42 12 0.0 3.0 0.00 0.00 0.00 90 1027.3
20220123114223 42 0 0.0 4.0 0.00 0.00 0.00 90 1027.3
20220123113724 42 18 0.0 4.0 0.00 0.00 0.00 91 1027.4
20220123113223 42 29 1.0 7.0 0.00 0.00 0.00 91 1027.4
20220123112224 42 19 2.0 7.0 0.00 0.00 0.00 91 1027.5
20220123111223 42 15 0.0 4.0 0.00 0.00 0.00 91 1027.7
20220123110724 43 9 3.0 3.0 0.00 0.00 0.00 91 1027.8
20220123110223 43 343 1.0 1.0 0.00 0.00 0.00 89 1027.8
20220123105724 43 0 0.0 3.0 0.00 0.00 0.00 90 1027.8
20220123105224 43 21 0.0 3.0 0.00 0.00 0.00 89 1027.8
20220123104725 44 18 0.0 3.0 0.00 0.00 0.00 88 1027.8
20220123104225 44 0 1.0 1.0 0.00 0.00 0.00 86 1027.8
20220123103724 44 2 0.0 1.0 0.00 0.00 0.00 85 1027.8
20220123103224 44 130 0.0 4.0 0.00 0.00 0.00 85 1027.9
20220123102723 44 100 1.0 4.0 0.00 0.00 0.00 85 1028.0
20220123102225 44 310 0.0 4.0 0.00 0.00 0.00 86 1028.0
20220123101723 44 40 1.0 3.0 0.00 0.00 0.00 87 1027.9
20220123101224 44 12 2.0 4.0 0.00 0.00 0.00 87 1027.8
20220123095723 44 15 1.0 3.0 0.00 0.00 0.00 87 1027.7
20220123094723 44 0 0.0 0.0 0.00 0.00 0.00 88 1027.6
20220123094223 44 0 0.0 0.0 0.00 0.00 0.00 88 1027.5
20220123093723 44 0 0.0 0.0 0.00 0.00 0.00 85 1027.5
20220123093224 45 0 0.0 0.0 0.00 0.00 0.00 86 1027.5
20220123092723 45 0 0.0 0.0 0.00 0.00 0.00 85 1027.5
20220123091723 45 0 0.0 0.0 0.00 0.00 0.00 82 1027.6
20220123091224 45 337 0.0 3.0 0.00 0.00 0.00 82 1027.6
20220123090723 45 337 0.0 3.0 0.00 0.00 0.00 83 1027.5
20220123090224 45 306 0.0 3.0 0.00 0.00 0.00 84 1027.5
20220123085724 46 0 0.0 3.0 0.00 0.00 0.00 81 1027.5
20220123085224 46 201 0.0 3.0 0.00 0.00 0.00 81 1027.5
20220123084724 46 348 0.0 5.0 0.00 0.00 0.00 80 1027.4
20220123084225 46 357 1.0 5.0 0.00 0.00 0.00 80 1027.5
20220123083724 46 100 1.0 5.0 0.00 0.00 0.00 81 1027.6
20220123082723 47 32 0.0 4.0 0.00 0.00 0.00 79 1027.5
20220123082224 47 95 0.0 3.0 0.00 0.00 0.00 78 1027.4
20220123081224 47 348 0.0 3.0 0.00 0.00 0.00 77 1027.3
20220123075725 47 110 0.0 4.0 0.00 0.00 0.00 78 1027.7
20220123074723 47 67 0.0 4.0 0.00 0.00 0.00 79 1027.5
20220123073223 46 58 0.0 4.0 0.00 0.00 0.00 81 1027.4
20220123072225 46 15 1.0 4.0 0.00 0.00 0.00 83 1027.6
20220123071223 46 331 1.0 5.0 0.00 0.00 0.00 82 1027.5
20220123070725 46 32 0.0 5.0 0.00 0.00 0.00 81 1027.5
20220123070223 46 57 2.0 5.0 0.00 0.00 0.00 82 1027.5
20220123064724 47 49 1.0 4.0 0.00 0.00 0.00 81 1027.5
20220123064223 47 9 1.0 4.0 0.00 0.00 0.00 80 1027.5
20220123063223 46 124 0.0 5.0 0.00 0.00 0.00 81 1027.5
20220123062724 46 147 0.0 5.0 0.00 0.00 0.00 82 1027.4
20220123062224 46 116 0.0 2.0 0.00 0.00 0.00 82 1027.3
20220123061222 47 103 0.0 2.0 0.00 0.00 0.00 82 1027.2
20220123060723 47 128 1.0 4.0 0.00 0.00 0.00 81 1027.3
20220123055722 47 89 1.0 4.0 0.00 0.00 0.00 79 1027.3
20220123055224 47 0 1.0 2.0 0.00 0.00 0.00 79 1027.3
20220123054722 47 60 0.0 3.0 0.00 0.00 0.00 79 1027.2
20220123054222 48 96 0.0 3.0 0.00 0.00 0.00 78 1027.2
20220123053722 48 11 0.0 3.0 0.00 0.00 0.00 77 1027.1
20220123053222 47 12 0.0 2.0 0.00 0.00 0.00 79 1027.2
20220123052722 47 0 0.0 4.0 0.00 0.00 0.00 79 1027.2
20220123052224 47 74 0.0 4.0 0.00 0.00 0.00 79 1027.2
20220123051722 47 44 0.0 4.0 0.00 0.00 0.00 79 1027.2
20220123051223 47 58 1.0 3.0 0.00 0.00 0.00 79 1027.1
20220123050722 47 121 0.0 3.0 0.00 0.00 0.00 80 1027.1
20220123050223 47 116 0.0 2.0 0.00 0.00 0.00 80 1027.1
20220123045225 47 127 0.0 1.0 0.00 0.00 0.00 81 1027.1
20220123044723 47 99 0.0 3.0 0.00 0.00 0.00 81 1027.2
20220123043723 48 79 1.0 3.0 0.00 0.00 0.00 79 1027.3
20220123043223 48 0 0.0 1.0 0.00 0.00 0.00 79 1027.3
20220123042722 47 0 0.0 0.0 0.00 0.00 0.00 81 1027.2
20220123041222 48 0 0.0 0.0 0.00 0.00 0.00 80 1027.2
20220123040722 48 0 0.0 0.0 0.00 0.00 0.00 79 1027.3
20220123040222 48 35 0.0 0.0 0.00 0.00 0.00 80 1027.3
20220123035722 48 0 0.0 0.0 0.00 0.00 0.00 80 1027.3
20220123033722 48 0 0.0 0.0 0.00 0.00 0.00 80 1027.2
20220123031722 48 0 0.0 4.0 0.00 0.00 0.00 82 1027.4
20220123031224 48 0 0.0 4.0 0.00 0.00 0.00 83 1027.3
20220123030722 48 12 0.0 4.0 0.00 0.00 0.00 83 1027.3
20220123025722 48 114 0.0 4.0 0.00 0.00 0.00 85 1027.3
20220123025224 48 124 0.0 4.0 0.00 0.00 0.00 85 1027.4
20220123024723 47 72 0.0 4.0 0.00 0.00 0.00 87 1027.6
20220123024224 47 61 0.0 6.0 0.00 0.00 0.00 87 1027.7
20220123023722 47 357 1.0 6.0 0.00 0.00 0.00 88 1027.6
20220123023222 47 23 0.0 6.0 0.00 0.00 0.00 89 1027.6
20220123022722 47 330 0.0 3.0 0.00 0.00 0.00 90 1027.6
20220123022223 47 19 0.0 3.0 0.00 0.00 0.00 91 1027.6
20220123021722 46 116 0.0 1.0 0.00 0.00 0.00 92 1027.7
20220123021222 46 0 0.0 0.0 0.00 0.00 0.00 92 1027.8
20220123020722 46 0 0.0 0.0 0.00 0.00 0.00 93 1027.9
20220123015724 47 0 0.0 0.0 0.00 0.00 0.00 90 1027.9
20220123015223 47 0 0.0 0.0 0.00 0.00 0.00 88 1027.8
20220123014722 47 0 0.0 0.0 0.00 0.00 0.00 87 1027.9
20220123014224 47 0 0.0 0.0 0.00 0.00 0.00 87 1027.8
20220123013722 47 0 0.0 0.0 0.00 0.00 0.00 85 1027.9
20220123013222 47 0 0.0 0.0 0.00 0.00 0.00 87 1028.0
20220123012723 47 0 0.0 0.0 0.00 0.00 0.00 86 1028.1
20220123012222 48 0 0.0 0.0 0.00 0.00 0.00 86 1028.0
20220123011723 48 0 0.0 0.0 0.00 0.00 0.00 87 1027.9
20220123011222 48 0 0.0 2.0 0.00 0.00 0.00 86 1027.8
20220123010722 48 0 0.0 2.0 0.00 0.00 0.00 88 1027.8
20220123010222 48 172 0.0 2.0 0.00 0.00 0.00 88 1027.8
20220123005722 48 163 0.0 2.0 0.00 0.00 0.00 88 1027.9
20220123005222 48 0 0.0 1.0 0.00 0.00 0.00 88 1027.9
20220123004722 48 0 0.0 1.0 0.00 0.00 0.00 88 1028.0
20220123004222 48 226 0.0 1.0 0.00 0.00 0.00 88 1028.0
20220123003722 48 0 0.0 0.0 0.00 0.00 0.00 88 1027.9
20220123003223 49 0 0.0 0.0 0.00 0.00 0.00 88 1027.9
20220123002723 49 0 0.0 0.0 0.00 0.00 0.00 88 1027.8
20220123002223 49 0 0.0 0.0 0.00 0.00 0.00 87 1027.9
20220123001722 49 0 0.0 0.0 0.00 0.00 0.00 87 1028.0
20220123001222 49 0 0.0 0.0 0.00 0.00 0.00 88 1028.2
20220123000722 49 0 0.0 0.0 0.00 0.00 0.00 88 1028.3
20220123000222 49 0 0.0 0.0 0.00 0.00 0.00 88 1028.3
20220122235723 49 0 0.0 0.0 0.00 0.00 0.00 88 1028.3
20220122235222 49 0 0.0 0.0 0.00 0.00 0.00 88 1028.3
20220122234722 49 0 0.0 0.0 0.00 0.00 0.00 88 1028.3
20220122234222 49 0 0.0 0.0 0.00 0.00 0.00 89 1028.4
20220122233722 50 0 0.0 0.0 0.00 0.00 0.00 88 1028.5
20220122233224 50 0 0.0 0.0 0.00 0.00 0.00 89 1028.6
20220122232722 50 187 0.0 0.0 0.00 0.00 0.00 89 1028.6
20220122232223 49 0 0.0 0.0 0.00 0.00 0.00 90 1028.6
20220122231722 49 0 0.0 0.0 0.00 0.00 0.00 90 1028.6
20220122231222 49 0 0.0 0.0 0.00 0.00 0.00 90 1028.5
20220122230722 49 0 0.0 0.0 0.00 0.00 0.00 90 1028.5
20220122230222 49 0 0.0 0.0 0.00 0.00 0.00 90 1028.5
20220122225722 49 0 0.0 0.0 0.00 0.00 0.00 90 1028.5
20220122225223 49 0 0.0 2.0 0.00 0.00 0.00 90 1028.6
20220122224722 49 0 0.0 2.0 0.00 0.00 0.00 90 1028.6
20220122224223 49 191 0.0 2.0 0.00 0.00 0.00 90 1028.7
20220122223722 49 176 1.0 1.0 0.00 0.00 0.00 90 1028.7
20220122223222 49 189 0.0 1.0 0.00 0.00 0.00 90 1028.6
20220122222722 49 0 0.0 0.0 0.00 0.00 0.00 90 1028.6
20220122222223 49 0 0.0 0.0 0.00 0.00 0.00 90 1028.7
20220122221722 49 0 0.0 0.0 0.00 0.00 0.00 90 1028.9
20220122221222 49 0 0.0 1.0 0.00 0.00 0.00 89 1029.0
20220122220722 49 0 0.0 1.0 0.00 0.00 0.00 90 1029.0
20220122220222 49 183 0.0 1.0 0.00 0.00 0.00 90 1029.0
20220122215723 49 0 0.0 0.0 0.00 0.00 0.00 91 1029.0
20220122215223 49 0 0.0 0.0 0.00 0.00 0.00 91 1029.1
20220122214222 49 0 0.0 0.0 0.00 0.00 0.00 91 1029.2
20220122213722 48 0 0.0 0.0 0.00 0.00 0.00 92 1029.3
20220122213222 48 0 0.0 0.0 0.00 0.00 0.00 92 1029.4
20220122212723 48 0 0.0 0.0 0.00 0.00 0.00 92 1029.4
20220122212222 48 0 0.0 1.0 0.00 0.00 0.00 93 1029.4
20220122211723 48 0 0.0 1.0 0.00 0.00 0.00 93 1029.5
20220122211223 48 180 0.0 1.0 0.00 0.00 0.00 92 1029.5
20220122210724 48 0 0.0 0.0 0.00 0.00 0.00 92 1029.5
20220122210222 48 0 0.0 2.0 0.00 0.00 0.00 93 1029.6
20220122205728 47 0 0.0 0.0 0.00 0.00 0.00 93 1029.7
20220122205723 47 0 0.0 2.0 0.00 0.00 0.00 93 1029.7
20220122205224 47 184 0.0 2.0 0.00 0.00 0.00 92 1029.7
20220122204722 47 26 0.0 1.0 0.00 0.00 0.00 93 1029.8
20220122204222 47 0 0.0 0.0 0.00 0.00 0.00 93 1029.9
20220122203722 47 0 0.0 0.0 0.00 0.00 0.00 94 1029.9
20220122203222 47 0 0.0 0.0 0.00 0.00 0.00 93 1030.1
20220122202722 47 0 0.0 0.0 0.00 0.00 0.00 93 1030.2
20220122202222 47 0 0.0 0.0 0.00 0.00 0.00 94 1030.3
20220122201722 46 0 0.0 0.0 0.00 0.00 0.00 92 1030.3
20220122201222 46 0 0.0 0.0 0.00 0.00 0.00 92 1030.3
20220122200722 46 0 0.0 0.0 0.00 0.00 0.00 95 1030.5
20220122200222 46 0 0.0 2.0 0.00 0.00 0.00 96 1030.5
20220122195723 46 0 0.0 2.0 0.00 0.00 0.00 96 1030.6
20220122195223 46 99 0.0 2.0 0.00 0.00 0.00 96 1030.7
20220122194722 46 0 0.0 0.0 0.00 0.00 0.00 96 1030.7
20220122194222 45 0 0.0 0.0 0.00 0.00 0.00 96 1030.7
20220122193723 45 0 0.0 0.0 0.00 0.00 0.00 97 1030.8
20220122193222 45 0 0.0 0.0 0.00 0.00 0.00 97 1030.9
20220122192723 45 0 0.0 0.0 0.00 0.00 0.00 97 1031.0
20220122191722 44 0 0.0 0.0 0.00 0.00 0.00 98 1031.2
20220122191222 44 0 0.0 0.0 0.00 0.00 0.00 98 1031.2
20220122190722 43 0 0.0 0.0 0.00 0.00 0.00 98 1031.3
20220122190225 43 0 0.0 0.0 0.00 0.00 0.00 98 1031.4
20220122185722 43 0 0.0 0.0 0.00 0.00 0.00 98 1031.4
20220122185223 42 0 0.0 0.0 0.00 0.00 0.00 98 1031.4
20220122184223 42 0 0.0 0.0 0.00 0.00 0.00 98 1031.4
20220122183722 41 0 0.0 0.0 0.00 0.00 0.00 98 1031.3
20220122183222 41 0 0.0 0.0 0.00 0.00 0.00 99 1031.4
20220122182723 41 0 0.0 0.0 0.00 0.00 0.00 99 1031.4
20220122182223 41 0 0.0 0.0 0.00 0.00 0.00 99 1031.4
20220122181222 40 0 0.0 0.0 0.00 0.00 0.00 100 1031.3
20220122180722 40 0 0.0 0.0 0.00 0.00 0.00 100 1031.4
20220122180222 39 0 0.0 0.0 0.00 0.00 0.00 100 1031.4
20220122175722 39 0 0.0 0.0 0.00 0.00 0.00 100 1031.4
20220122175222 39 0 0.0 0.0 0.00 0.00 0.00 100 1031.4
20220122174724 39 0 0.0 0.0 0.00 0.00 0.00 100 1031.5
20220122174221 38 0 0.0 0.0 0.00 0.00 0.00 100 1031.5
20220122173721 38 0 0.0 0.0 0.00 0.00 0.00 100 1031.5
20220122173222 38 0 0.0 0.0 0.00 0.00 0.00 100 1031.5
20220122172722 38 0 0.0 0.0 0.00 0.00 0.00 100 1031.6
20220122171721 37 0 0.0 0.0 0.00 0.00 0.00 100 1031.8
20220122171221 37 0 0.0 0.0 0.00 0.00 0.00 100 1031.9
20220122170221 37 0 0.0 0.0 0.00 0.00 0.00 100 1032.1
20220122165721 37 0 0.0 0.0 0.00 0.01 0.00 100 1032.1
20220122165223 37 0 0.0 0.0 0.00 0.01 0.00 100 1032.1
20220122164721 37 0 0.0 0.0 0.00 0.01 0.00 100 1032.1
20220122164221 37 0 0.0 0.0 0.00 0.01 0.00 100 1032.1
20220122163721 37 0 0.0 0.0 0.00 0.01 0.00 100 1032.1
20220122163221 37 0 0.0 0.0 0.00 0.01 0.00 100 1032.2
20220122162721 37 0 0.0 0.0 0.00 0.01 0.00 100 1032.2
20220122162222 36 0 0.0 0.0 0.00 0.01 0.00 100 1032.3
20220122161723 36 0 0.0 0.0 0.00 0.01 0.00 100 1032.3
20220122161221 36 15 0.0 3.0 0.00 0.01 0.00 100 1032.3
20220122160722 36 0 0.0 3.0 0.00 0.01 0.00 100 1032.2
20220122160221 36 98 0.0 3.0 0.00 0.01 0.00 100 1032.1
20220122155721 36 0 0.0 2.0 0.00 0.01 0.00 100 1032.1
20220122155222 36 39 0.0 2.0 0.00 0.01 0.00 100 1032.1